This is the latest recevied weather packets stored in our database for station/object ZS1DFR-1. If no packets are shown the sender has not sent any weather packets the latest 10 day(s).
| Time | Temp. | Humidity | Pressure | Rain* | Wind** | Luminosity | Snow |
|---|---|---|---|---|---|---|---|
| 1777943313 | 11.11° C | 98% | 1012.4 hPa | 0 mm | - | - | - |
| 1777942412 | 11.11° C | 98% | 1012.6 hPa | 0 mm | - | - | - |
| 1777941513 | 11.11° C | 98% | 1012.6 hPa | 0 mm | - | - | - |
| 1777940613 | 11.67° C | 98% | 1012.7 hPa | 0 mm | - | - | - |
| 1777939712 | 11.67° C | 98% | 1012.7 hPa | 0 mm | - | - | - |
| 1777938812 | 11.67° C | 97% | 1012.6 hPa | 0 mm | - | - | - |
| 1777937913 | 11.67° C | 97% | 1012.6 hPa | 0 mm | - | - | - |
| 1777937012 | 12.22° C | 97% | 1012.6 hPa | 0 mm | - | - | - |
| 1777936113 | 12.22° C | 97% | 1012.6 hPa | 0 mm | - | - | - |
| 1777935212 | 12.22° C | 96% | 1012.9 hPa | 0.76 mm | - | - | - |
| 1777934312 | 12.22° C | 96% | 1012.9 hPa | 0.76 mm | - | - | - |
| 1777933412 | 13.89° C | 83% | 1013.1 hPa | 0 mm | - | - | - |
| 1777932512 | 13.89° C | 83% | 1013.1 hPa | 0 mm | - | - | - |
| 1777931612 | 13.89° C | 83% | 1013.1 hPa | 0 mm | - | - | - |
| 1777930712 | 13.89° C | 83% | 1013.1 hPa | 0 mm | - | - | - |
| 1777929812 | 13.89° C | 84% | 1013.2 hPa | 0 mm | - | - | - |
| 1777928912 | 13.89° C | 84% | 1013.2 hPa | 0 mm | - | - | - |
| 1777928012 | 14.44° C | 86% | 1013.1 hPa | 0 mm | - | - | - |
| 1777927112 | 14.44° C | 86% | 1013.1 hPa | 0 mm | - | - | - |
| 1777926212 | 14.44° C | 84% | 1012.8 hPa | 0 mm | - | - | - |
| 1777925312 | 14.44° C | 84% | 1012.8 hPa | 0 mm | - | - | - |
| 1777924412 | 14.44° C | 84% | 1012.9 hPa | 0 mm | - | - | - |
| 1777923512 | 14.44° C | 84% | 1012.9 hPa | 0 mm | - | - | - |
| 1777922612 | 14.44° C | 83% | 1012.9 hPa | 0 mm | - | - | - |
| 1777921712 | 14.44° C | 83% | 1012.9 hPa | 0 mm | - | - | - |
* Rain latest hour (hover to see other rain measurements)
** Current wind speed in m/s (hover to see current wind gust speed)